User: anonymous   Login
Location: Unspecified
(0.0000°N, 0.0000°E)
Time: 10:51:25
(UTC+00:00)
Language:

USA 229 - Orbit

View from above orbital plane
View from above orbital plane
View from above satellite
View from above satellite

Ground track
Ground track

The orbit data is extracted from the following two-line orbital elements,

1 37386U 11014A   17202.01868338 0.00000000  00000-0  00000-0 0    06
2 37386  63.4363 290.3104 0071241   2.7393 357.2607 13.40734046    04
Epoch (UTC): 21 July 2017 00:26:54
Eccentricity: 0.0071241
inclination: 63.4363°
perigee height: 1053 km
apogee height: 1160 km
right ascension of ascending node: 290.3104°
argument of perigee: 2.7393°
revolutions per day: 13.40734046
mean anomaly at epoch: 357.2607°
orbit number at epoch: 0

The dashed part of the orbit path shows where the satellite is in the earth's shadow,  

DLR